Lid_Strength_Index
12 11 12 12 12 11 12 12 13 12 12 10 9 9 8 7 8 7 7 6 6 6 6 6 6 4 4 4 4 4 2 3 3 3 3 2 2 3 2 2 2 2 2 2
13 11 12 13 11 11 11 11 11 11 12 9 7 7 8 7 7 7 6 6 6 5 6 6 5 4 4 4 5 4 3 3 3 3 3 2 3 3 3 3 3 1 2 1
16 12 13 15 12 12 11 10 10 12 11 10 9 8 8 8 7 6 6 6 5 5 6 5 5 3 4 4 4 4 3 3 3 2 3 2 3 3 3 5 4 3 2 2
18 14 18 13 10 10 11 9 9 10 10 8 8 7 6 6 6 6 6 6 5 5 5 5 5 4 4 5 4 4 3 3 3 2 3 3 2 3 4 5 5 4 4 3
18 17 14 12 10 11 12 12 9 9 10 8 7 7 9 6 5 5 5 5 5 4 4 5 5 4 4 5 4 4 3 3 3 3 4 4 4 4 4 5 6 6 6 4
16 18 18 13 10 8 9 13 9 9 10 9 8 10 8 6 5 6 5 5 5 4 4 5 5 4 4 5 4 4 3 3 3 3 3 4 3 4 5 5 6 6 6 5
17 17 15 10 8 7 14 14 9 8 9 10 8 7 6 6 5 5 5 6 5 5 5 5 5 4 4 5 4 3 2 3 3 3 3 4 4 4 4 4 5 6 7 8
15 17 19 9 9 13 11 9 9 8 8 9 7 8 7 5 5 5 6 6 5 5 6 5 5 5 5 5 4 3 2 3 3 3 3 3 4 3 4 4 5 6 7 8
13 14 10 9 10 9 10 10 10 10 7 7 8 8 7 6 5 5 5 5 5 5 6 6 5 4 5 5 5 3 3 3 4 3 4 3 4 4 4 4 5 5 6 7
13 10 11 10 9 10 10 10 9 9 6 6 9 8 7 5 5 5 5 5 5 6 6 6 5 4 4 5 5 4 4 4 4 3 4 3 3 3 3 4 4 3 4 5
13 11 11 9 11 11 10 9 9 8 6 6 6 8 6 6 5 5 5 5 5 6 6 6 5 5 4 5 4 4 4 5 4 3 3 3 3 3 2 2 3 3 3 4
15 11 12 11 10 10 10 10 9 9 7 6 5 6 7 6 5 4 5 5 5 5 6 5 5 5 4 4 5 4 5 5 4 3 3 2 2 4 10 8 8 8 8 5
11 9 9 9 9 8 9 10 8 8 7 7 5 5 6 6 5 4 4 4 5 5 5 5 5 5 4 4 4 4 5 5 4 4 2 3 3 3 4 6 10 10 11 9
9 9 10 10 11 9 9 9 8 7 7 6 5 4 5 5 5 4 4 4 4 5 5 5 5 5 5 4 4 5 5 8 5 4 3 2 2 3 2 3 4 5 10 9
9 8 9 9 9 8 8 9 8 8 7 7 6 5 5 5 5 5 4 4 4 4 5 5 5 5 4 4 4 4 5 5 5 5 3 3 2 2 3 3 3 5 8 11
7 9 9 9 9 9 9 9 9 9 7 7 7 5 4 4 4 4 4 3 4 5 4 5 5 5 4 4 4 5 5 8 7 5 5 4 3 3 3 3 3 3 5 5
10 10 8 10 9 9 9 8 8 8 8 7 7 6 4 4 4 4 4 4 4 4 4 4 4 4 4 4 4 5 5 6 9 6 5 4 3 3 3 3 3 3 4 5
8 8 8 9 9 9 9 8 8 7 8 7 6 6 6 6 6 5 5 4 4 4 4 3 3 4 3 4 4 4 5 6 6 6 6 5 4 4 4 3 3 4 5 7
8 8 7 8 8 9 9 9 8 7 8 7 6 6 7 7 6 6 5 4 5 5 5 3 7 7 4 5 5 4 5 6 6 6 6 9 7 5 5 5 5 5 5 7
6 7 7 8 7 7 8 8 7 7 7 7 7 6 7 7 7 5 5 5 4 4 4 3 5 4 3 6 9 4 4 5 6 5 6 6 6 6 5 8 5 5 6 6
6 6 7 7 7 6 6 7 7 8 7 7 7 7 7 7 6 6 5 5 4 3 3 8 5 4 5 8 7 5 5 5 5 6 6 6 6 6 6 6 6 6 6 6
5 6 7 7 7 8 7 7 6 7 7 7 6 7 6 7 6 5 4 5 4 13 7 4 5 9 8 12 5 5 5 5 5 5 5 6 6 6 6 6 6 6 6 7
4 5 5 6 7 7 7 6 6 6 5 5 6 6 5 6 5 5 6 5 4 8 6 6 11 16 14 4 5 5 4 5 5 5 5 6 5 5 5 5 5 6 7 8
5 4 4 4 5 6 6 5 5 5 6 5 5 4 4 5 4 4 4 10 13 11 6 7 9 14 10 5 5 5 5 5 5 6 6 10 6 6 6 6 7 8 7 8
5 5 5 4 5 5 4 4 5 5 5 5 6 5 4 3 4 4 4 5 13 9 4 10 13 12 5 5 6 5 6 6 6 6 6 7 7 7 7 7 8 9 10 10
5 5 5 5 4 4 4 4 4 5 5 5 5 4 3 2 3 4 3 7 4 9 5 4 5 4 4 4 5 5 6 8 7 8 8 8 9 9 9 10 10 11 11 11
5 6 5 5 4 4 4 5 5 5 4 6 5 4 3 4 5 4 6 3 4 5 5 6 6 7 4 4 4 5 6 7 9 8 8 9 10 10 10 11 11 11 11 11